When you browse on this site, cookies collect data to enhance your experience and personalize the content and advertising you see.
Visit our Privacy Policy to learn more. By continuing to use the site, you agree to this use of cookies and data.
  • In Portugal
  • List of Countries
  • For 7 days
  • Water Temperature
  • Weather Map
  • Weather Widgets
  • user-avatar
    Login

    Hourly Weather Dragunsk

    Today, 21 August, Wednesday

    Time Temperature Precipitation Wind Pressure Humidity
    00:00 +21°C° 0.3 mm 1 mps 753 mmHg 88%
    01:00 +21°C° 0.3 mm 1 mps 753 mmHg 89%
    02:00 +19°C° 0 mm 2 mps 754 mmHg 90%
    03:00 +19°C° 0.1 mm 2 mps 753 mmHg 90%
    04:00 +19°C° 0.1 mm 2 mps 753 mmHg 89%
    05:00 +19°C° 0.1 mm 2 mps 753 mmHg 88%
    06:00 +20°C° 0 mm 2 mps 753 mmHg 84%
    07:00 +21°C° 0 mm 2 mps 753 mmHg 79%
    08:00 +23°C° 0 mm 2 mps 753 mmHg 75%
    09:00 +25°C° 0 mm 3 mps 753 mmHg 69%
    10:00 +26°C° 0 mm 3 mps 753 mmHg 64%
    11:00 +28°C° 0 mm 4 mps 753 mmHg 58%
    12:00 +29°C° 0 mm 4 mps 753 mmHg 56%
    13:00 +30°C° 0 mm 4 mps 752 mmHg 54%
    14:00 +30°C° 0 mm 4 mps 752 mmHg 51%
    15:00 +30°C° 0 mm 4 mps 752 mmHg 54%
    16:00 +30°C° 0 mm 3 mps 751 mmHg 57%
    17:00 +29°C° 0 mm 3 mps 751 mmHg 61%
    18:00 +28°C° 0 mm 3 mps 751 mmHg 64%
    19:00 +26°C° 0 mm 3 mps 751 mmHg 68%
    20:00 +24°C° 0 mm 3 mps 751 mmHg 72%
    21:00 +22°C° 0 mm 3 mps 751 mmHg 72%
    22:00 +22°C° 0 mm 3 mps 751 mmHg 73%
    23:00 +21°C° 0 mm 3 mps 751 mmHg 73%

    Tomorrow, 22 August, Thursday

    Time Temperature Precipitation Wind Pressure Humidity
    00:00 +21°C° 0 mm 3 mps 751 mmHg 79%
    01:00 +20°C° 0 mm 3 mps 751 mmHg 84%
    02:00 +19°C° 0 mm 3 mps 752 mmHg 89%
    03:00 +19°C° 0.4 mm 3 mps 752 mmHg 91%
    04:00 +18°C° 0.4 mm 4 mps 752 mmHg 92%
    05:00 +18°C° 0.4 mm 4 mps 752 mmHg 94%
    06:00 +16°C° 0.1 mm 5 mps 752 mmHg 92%
    07:00 +16°C° 0.1 mm 5 mps 753 mmHg 91%
    08:00 +16°C° 0.1 mm 6 mps 754 mmHg 90%
    09:00 +17°C° 0 mm 6 mps 754 mmHg 86%
    10:00 +17°C° 0 mm 6 mps 754 mmHg 82%
    11:00 +19°C° 0 mm 6 mps 754 mmHg 78%
    12:00 +20°C° 0 mm 6 mps 754 mmHg 74%
    13:00 +21°C° 0 mm 6 mps 755 mmHg 70%
    14:00 +21°C° 0 mm 5 mps 755 mmHg 65%
    15:00 +21°C° 0 mm 5 mps 755 mmHg 66%
    16:00 +21°C° 0 mm 5 mps 755 mmHg 67%
    17:00 +21°C° 0 mm 5 mps 755 mmHg 68%
    18:00 +19°C° 0 mm 4 mps 755 mmHg 75%
    19:00 +18°C° 0 mm 3 mps 755 mmHg 81%
    20:00 +16°C° 0 mm 3 mps 756 mmHg 88%
    21:00 +16°C° 0 mm 3 mps 756 mmHg 89%
    22:00 +14°C° 0 mm 3 mps 756 mmHg 90%
    23:00 +14°C° 0 mm 3 mps 756 mmHg 91%

    Day after tomorrow, 23 August, Friday

    Time Temperature Precipitation Wind Pressure Humidity
    00:00 +13°C° 0 mm 3 mps 756 mmHg 90%
    01:00 +13°C° 0 mm 3 mps 757 mmHg 90%
    02:00 +13°C° 0 mm 2 mps 757 mmHg 90%
    03:00 +13°C° 0 mm 2 mps 757 mmHg 91%
    04:00 +13°C° 0 mm 2 mps 757 mmHg 91%
    05:00 +12°C° 0 mm 2 mps 757 mmHg 92%
    06:00 +14°C° 0 mm 2 mps 757 mmHg 87%
    07:00 +15°C° 0 mm 2 mps 757 mmHg 81%
    08:00 +17°C° 0 mm 2 mps 757 mmHg 76%
    09:00 +18°C° 0 mm 2 mps 757 mmHg 70%
    10:00 +20°C° 0 mm 3 mps 757 mmHg 64%
    11:00 +21°C° 0 mm 3 mps 757 mmHg 57%
    12:00 +22°C° 0 mm 3 mps 757 mmHg 55%
    13:00 +22°C° 0 mm 3 mps 757 mmHg 52%
    14:00 +24°C° 0 mm 3 mps 757 mmHg 50%
    15:00 +22°C° 0 mm 3 mps 757 mmHg 53%
    16:00 +22°C° 0 mm 3 mps 757 mmHg 56%
    17:00 +23°C° 0 mm 2 mps 756 mmHg 60%
    18:00 +20°C° 0 mm 2 mps 756 mmHg 66%
    19:00 +18°C° 0 mm 2 mps 756 mmHg 72%
    20:00 +16°C° 0 mm 2 mps 756 mmHg 78%
    21:00 +15°C° 0 mm 2 mps 756 mmHg 80%
    22:00 +15°C° 0 mm 1 mps 757 mmHg 82%
    23:00 +14°C° 0 mm 1 mps 757 mmHg 84%

    24 August, Saturday

    Time Temperature Precipitation Wind Pressure Humidity
    00:00 +14°C° 0 mm 1 mps 757 mmHg 86%
    01:00 +13°C° 0 mm 1 mps 757 mmHg 87%
    02:00 +13°C° 0 mm 1 mps 757 mmHg 88%
    03:00 +13°C° 0 mm 1 mps 757 mmHg 89%
    04:00 +12°C° 0 mm 1 mps 757 mmHg 89%
    05:00 +12°C° 0 mm 1 mps 756 mmHg 90%
    06:00 +14°C° 0 mm 1 mps 757 mmHg 84%
    07:00 +16°C° 0 mm 1 mps 757 mmHg 77%
    08:00 +19°C° 0 mm 1 mps 757 mmHg 71%
    09:00 +20°C° 0 mm 1 mps 756 mmHg 64%
    10:00 +22°C° 0 mm 1 mps 756 mmHg 58%
    11:00 +24°C° 0 mm 1 mps 756 mmHg 51%
    12:00 +24°C° 0 mm 1 mps 756 mmHg 48%
    13:00 +25°C° 0 mm 1 mps 756 mmHg 45%
    14:00 +25°C° 0 mm 1 mps 755 mmHg 42%
    15:00 +25°C° 0 mm 1 mps 755 mmHg 45%
    16:00 +25°C° 0 mm 1 mps 755 mmHg 49%
    17:00 +25°C° 0 mm 1 mps 754 mmHg 52%
    18:00 +22°C° 0 mm 1 mps 754 mmHg 57%
    19:00 +20°C° 0 mm 1 mps 754 mmHg 63%
    20:00 +15°C° 0 mm 0 mps 754 mmHg 69%
    21:00 +15°C° 0 mm 0 mps 754 mmHg 71%
    22:00 +14°C° 0 mm 0 mps 754 mmHg 74%
    23:00 +14°C° 0 mm 0 mps 754 mmHg 76%

    25 August, Sunday

    Time Temperature Precipitation Wind Pressure Humidity
    00:00 +13°C° 0 mm 0 mps 754 mmHg 77%
    01:00 +13°C° 0 mm 0 mps 754 mmHg 78%
    02:00 +13°C° 0 mm 0 mps 754 mmHg 79%
    03:00 +13°C° 0 mm 0 mps 754 mmHg 80%
    04:00 +12°C° 0 mm 0 mps 754 mmHg 81%
    05:00 +12°C° 0 mm 0 mps 754 mmHg 82%
    06:00 +15°C° 0 mm 1 mps 754 mmHg 77%
    07:00 +18°C° 0 mm 1 mps 754 mmHg 72%
    08:00 +19°C° 0 mm 1 mps 754 mmHg 66%
    09:00 +21°C° 0 mm 1 mps 754 mmHg 62%
    10:00 +22°C° 0 mm 1 mps 754 mmHg 58%
    11:00 +24°C° 0 mm 1 mps 755 mmHg 53%
    12:00 +25°C° 0 mm 1 mps 754 mmHg 51%
    13:00 +25°C° 0 mm 2 mps 754 mmHg 49%
    14:00 +25°C° 0 mm 2 mps 754 mmHg 47%
    15:00 +25°C° 0 mm 2 mps 754 mmHg 51%
    16:00 +25°C° 0 mm 2 mps 754 mmHg 55%
    17:00 +24°C° 0 mm 2 mps 754 mmHg 59%
    18:00 +21°C° 0 mm 2 mps 754 mmHg 67%
    19:00 +20°C° 0 mm 2 mps 754 mmHg 74%
    20:00 +18°C° 0 mm 2 mps 754 mmHg 82%
    21:00 +17°C° 0 mm 2 mps 754 mmHg 86%
    22:00 +17°C° 0 mm 2 mps 755 mmHg 89%
    23:00 +16°C° 0 mm 2 mps 755 mmHg 93%

    26 August, Monday

    Time Temperature Precipitation Wind Pressure Humidity
    00:00 +16°C° 0 mm 2 mps 755 mmHg 94%
    01:00 +15°C° 0 mm 2 mps 755 mmHg 95%
    02:00 +15°C° 0 mm 2 mps 755 mmHg 95%
    03:00 +15°C° 0 mm 2 mps 755 mmHg 95%
    04:00 +14°C° 0 mm 2 mps 755 mmHg 95%
    05:00 +14°C° 0 mm 2 mps 755 mmHg 95%
    06:00 +15°C° 0 mm 2 mps 756 mmHg 90%
    07:00 +17°C° 0 mm 3 mps 756 mmHg 86%
    08:00 +18°C° 0 mm 3 mps 756 mmHg 81%
    09:00 +20°C° 0 mm 3 mps 756 mmHg 74%
    10:00 +21°C° 0 mm 3 mps 756 mmHg 68%
    11:00 +24°C° 0 mm 3 mps 756 mmHg 62%
    12:00 +24°C° 0 mm 3 mps 756 mmHg 61%
    13:00 +25°C° 0 mm 3 mps 755 mmHg 59%
    14:00 +25°C° 0 mm 3 mps 755 mmHg 58%
    15:00 +25°C° 0 mm 3 mps 755 mmHg 60%
    16:00 +25°C° 0 mm 3 mps 754 mmHg 63%
    17:00 +24°C° 0 mm 3 mps 754 mmHg 65%
    18:00 +21°C° 0 mm 3 mps 754 mmHg 71%
    19:00 +20°C° 0 mm 3 mps 754 mmHg 76%
    20:00 +18°C° 0 mm 3 mps 754 mmHg 82%
    21:00 +17°C° 0 mm 3 mps 754 mmHg 83%
    22:00 +17°C° 0 mm 3 mps 754 mmHg 83%
    23:00 +16°C° 0 mm 3 mps 754 mmHg 83%
    Show more